N1BS KBFI-KATW

Flight info

Callsign N1BS
Flight time N/A
Altitude 37000
Route DCT ZADON DCT ZELAK DCT ZIRAN DCT ZAXBY DCT BLOWS DCT MLS/N0514F390 DCT KP06Y DCT MSP DCT FALEN DCT BIPID DCT
Aircraft C750/M-SBDE3FGIRWXY/HB1

Departure

Time 2026-05-08 13:05
Airport King County International Airport - Boeing Field (KBFI)

Arrival

Time N/A
Airport Appleton International Airport (KATW)
Time Latitude Longitude Altitude Speed Heading
2026-05-08 12:49 47.52747 -122.29723 24 ft 0 kts 151°
2026-05-08 12:57 47.52744 -122.29720 26 ft 2 kts 151°
2026-05-08 12:57 47.52735 -122.29713 24 ft 2 kts 151°
2026-05-08 12:57 47.52723 -122.29716 24 ft 3 kts 211°
2026-05-08 12:57 47.52705 -122.29761 23 ft 6 kts 243°
2026-05-08 12:58 47.52702 -122.29828 22 ft 8 kts 308°
2026-05-08 12:58 47.52714 -122.29845 22 ft 1 kts 321°
2026-05-08 12:58 47.52726 -122.29882 21 ft 11 kts 273°
2026-05-08 12:58 47.52674 -122.30055 20 ft 20 kts 266°
2026-05-08 12:59 47.52749 -122.30185 22 ft 16 kts 333°
2026-05-08 12:59 47.52856 -122.30276 24 ft 19 kts 332°
2026-05-08 12:59 47.52982 -122.30382 23 ft 23 kts 330°
2026-05-08 12:59 47.53129 -122.30506 23 ft 26 kts 330°
2026-05-08 13:00 47.53294 -122.30645 25 ft 28 kts 330°
2026-05-08 13:00 47.53455 -122.30781 24 ft 26 kts 330°
2026-05-08 13:00 47.53604 -122.30908 23 ft 24 kts 329°
2026-05-08 13:00 47.53742 -122.31024 26 ft 22 kts 330°
2026-05-08 13:01 47.53877 -122.31138 23 ft 23 kts 329°
2026-05-08 13:01 47.54006 -122.31249 23 ft 16 kts 326°
2026-05-08 13:01 47.54101 -122.31331 26 ft 16 kts 332°
2026-05-08 13:01 47.54200 -122.31398 26 ft 15 kts 356°
2026-05-08 13:02 47.54237 -122.31356 24 ft 0 kts 69°
2026-05-08 13:02 47.54240 -122.31345 24 ft 4 kts 71°
2026-05-08 13:02 47.54223 -122.31277 28 ft 11 kts 150°
2026-05-08 13:02 47.54193 -122.31253 24 ft 0 kts 153°
2026-05-08 13:04 47.54053 -122.31134 25 ft 69 kts 150°
2026-05-08 13:04 47.53373 -122.30563 69 ft 138 kts 149°
2026-05-08 13:04 47.52483 -122.29808 453 ft 158 kts 150°
2026-05-08 13:05 47.51462 -122.28965 869 ft 176 kts 152°
2026-05-08 13:05 47.50371 -122.28042 1501 ft 184 kts 152°
2026-05-08 13:05 47.49242 -122.27058 2306 ft 190 kts 152°
2026-05-08 13:05 47.48127 -122.26076 3402 ft 180 kts 153°
2026-05-08 13:06 47.47097 -122.25152 4559 ft 166 kts 154°
2026-05-08 13:06 47.46142 -122.24269 5469 ft 161 kts 153°
2026-05-08 13:06 47.45170 -122.23343 6069 ft 174 kts 153°
2026-05-08 13:06 47.44095 -122.22328 6561 ft 194 kts 152°
2026-05-08 13:07 47.42931 -122.21090 6978 ft 221 kts 140°
2026-05-08 13:07 47.42016 -122.19182 7637 ft 241 kts 119°
2026-05-08 13:07 47.41501 -122.16670 8046 ft 272 kts 100°
2026-05-08 13:07 47.41497 -122.13738 8499 ft 299 kts 83°
2026-05-08 13:08 47.42076 -122.10781 9479 ft 300 kts 66°
2026-05-08 13:08 47.43149 -122.08130 10282 ft 306 kts 51°
2026-05-08 13:08 47.44669 -122.05836 10471 ft 329 kts 38°
2026-05-08 13:08 47.46484 -122.03555 10545 ft 356 kts 40°
2026-05-08 13:09 47.48318 -122.00970 11027 ft 365 kts 44°
2026-05-08 13:09 47.50041 -121.98198 11736 ft 369 kts 48°
2026-05-08 13:09 47.51647 -121.95188 12354 ft 375 kts 53°
2026-05-08 13:09 47.53088 -121.91934 12986 ft 380 kts 58°
2026-05-08 13:10 47.54316 -121.88421 13617 ft 386 kts 65°
2026-05-08 13:10 47.55280 -121.84686 14176 ft 390 kts 69°
2026-05-08 13:10 47.56304 -121.81004 14733 ft 393 kts 68°
2026-05-08 13:10 47.57186 -121.77151 15247 ft 398 kts 77°
2026-05-08 13:11 47.57501 -121.73079 15824 ft 399 kts 90°
2026-05-08 13:11 47.57268 -121.68983 16443 ft 399 kts 102°
2026-05-08 13:11 47.56516 -121.65022 17001 ft 401 kts 112°
2026-05-08 13:11 47.55897 -121.60959 17525 ft 409 kts 99°
2026-05-08 13:12 47.55667 -121.56705 17780 ft 416 kts 95°
2026-05-08 13:12 47.55559 -121.52431 17777 ft 420 kts 94°
2026-05-08 13:12 47.55487 -121.48063 18082 ft 428 kts 93°
2026-05-08 13:12 47.55420 -121.43644 18593 ft 432 kts 93°
2026-05-08 13:13 47.55353 -121.39164 19101 ft 437 kts 93°
2026-05-08 13:13 47.55286 -121.34651 19653 ft 441 kts 92°
2026-05-08 13:13 47.55215 -121.30146 20155 ft 445 kts 93°
2026-05-08 13:13 47.55136 -121.25534 20677 ft 450 kts 92°
2026-05-08 13:14 47.55056 -121.20882 21225 ft 455 kts 92°
2026-05-08 13:14 47.54975 -121.16182 21770 ft 459 kts 92°
2026-05-08 13:14 47.54892 -121.11438 22446 ft 459 kts 92°
2026-05-08 13:14 47.54809 -121.06691 22916 ft 467 kts 92°
2026-05-08 13:15 47.54724 -121.01856 23423 ft 471 kts 92°
2026-05-08 13:15 47.54638 -120.97009 23898 ft 474 kts 92°
2026-05-08 13:15 47.54553 -120.92110 24389 ft 477 kts 92°
2026-05-08 13:15 47.54469 -120.87197 24865 ft 479 kts 92°
2026-05-08 13:16 47.54383 -120.82249 25299 ft 482 kts 92°
2026-05-08 13:16 47.54296 -120.77269 25756 ft 485 kts 92°
2026-05-08 13:16 47.54207 -120.72263 26166 ft 487 kts 92°
2026-05-08 13:16 47.54118 -120.67236 26577 ft 490 kts 92°
2026-05-08 13:17 47.54029 -120.62172 26993 ft 494 kts 92°
2026-05-08 13:17 47.53939 -120.57070 27425 ft 497 kts 92°
2026-05-08 13:17 47.53848 -120.51945 27867 ft 500 kts 92°
2026-05-08 13:17 47.53756 -120.46782 28297 ft 503 kts 92°
2026-05-08 13:18 47.53664 -120.41660 28755 ft 506 kts 92°
2026-05-08 13:18 47.53572 -120.36442 29169 ft 509 kts 92°
2026-05-08 13:18 47.53478 -120.31189 29554 ft 513 kts 92°
2026-05-08 13:18 47.53383 -120.25889 29975 ft 515 kts 92°
2026-05-08 13:19 47.53287 -120.20571 30331 ft 518 kts 92°
2026-05-08 13:19 47.53191 -120.15210 30670 ft 521 kts 92°
2026-05-08 13:19 47.53095 -120.09833 31023 ft 524 kts 92°
2026-05-08 13:19 47.52998 -120.04428 31359 ft 526 kts 92°
2026-05-08 13:20 47.52901 -119.99012 31659 ft 529 kts 92°
2026-05-08 13:20 47.52803 -119.93537 31992 ft 532 kts 92°
2026-05-08 13:20 47.52706 -119.88119 32305 ft 534 kts 92°
2026-05-08 13:20 47.52607 -119.82625 32623 ft 537 kts 92°
2026-05-08 13:21 47.52508 -119.77085 32921 ft 539 kts 92°
2026-05-08 13:21 47.52408 -119.71520 33194 ft 541 kts 92°
2026-05-08 13:21 47.52308 -119.65950 33456 ft 543 kts 92°
2026-05-08 13:21 47.52207 -119.60356 33700 ft 545 kts 92°
2026-05-08 13:22 47.52106 -119.54743 33923 ft 546 kts 92°
2026-05-08 13:22 47.52005 -119.49112 34095 ft 548 kts 92°
2026-05-08 13:22 47.51904 -119.43478 34262 ft 550 kts 92°
2026-05-08 13:22 47.51804 -119.37877 34407 ft 551 kts 92°
2026-05-08 13:23 47.51702 -119.32203 34547 ft 553 kts 92°
2026-05-08 13:23 47.51600 -119.26504 34675 ft 554 kts 92°
2026-05-08 13:23 47.51497 -119.20803 34804 ft 555 kts 92°
2026-05-08 13:23 47.51394 -119.15087 34917 ft 556 kts 92°
2026-05-08 13:24 47.51290 -119.09358 35021 ft 557 kts 91°
2026-05-08 13:24 47.51186 -119.03627 35129 ft 558 kts 91°
2026-05-08 13:24 47.50979 -118.92108 35304 ft 560 kts 91°
2026-05-08 13:25 47.50771 -118.80584 35463 ft 562 kts 91°
2026-05-08 13:25 47.50563 -118.68999 35607 ft 564 kts 91°
2026-05-08 13:26 47.50353 -118.57369 35703 ft 565 kts 91°
2026-05-08 13:26 47.50146 -118.45801 35814 ft 566 kts 91°
2026-05-08 13:27 47.49937 -118.34149 35897 ft 567 kts 91°